Showing default

COSMOS 1910, 18789

Orbit data source: Space-Track

COSMOS 1910, 18789 is a payload satellite owned by UNKS (CIS) in LEO that was launched on Fri, 15 Jan 1988 UTC via a TSIKLON-3 launch vehicle from the Plesetsk Missile And Space Complex (PKMTR). Payload-class satellites include a variety of spacecraft equipped with specific instruments for various scientific and technological missions. These include communications satellites like Starlink; space stations such as the ISS; scientific satellites like the Hubble; Earth observation satellites from companies like Planet Labs, Umbra, and HawkEye 360; GPS; miniature CubeSats for education and research; and military/defense satellites.

Loading next visibility...
Identifier
18789, 1988-002B
Orbit
LEO
Country
Flag of CISCIS
Related business
Manufacturer
NPO PM
Mission
Defense Communications
Bus & Motor
STRELA-3, Unknown motor
Mass
225 kg wet, 225 kg dry
Launch date (UTC)
1988-01-15 (38 years ago)
Launch vehicle
TSIKLON-3
Launch site
Plesetsk Missile And Space Complex (PKMTR)
Object type
Payload
Rocket body
Debris
Shape & HBR
Cyl, 0.8 m
Radar Cross Section
1.257 m², Large (>1 m²)

Expand to show TLE details & history
Last TLE update: 1 day ago

TLE from 1 day ago
0 COSMOS 1910
1 18789U 88002B   25305.55032480  .00000013  00000-0  11246-4 0  9995
2 18789  82.6060  38.7249 0003992  15.4525 355.9331 12.63626170743125
Epoch: 2025-11-01T13:12Z
TLE epoch observation values (Epoch: 2025-11-01T13:12:28.062Z)
Latitude
11.24221°
Longitude
160.99996°
Altitude
1,406.895 km
Speed
7.159 km/s
True Right ascension
02h 40m 46s
True Declination
11° 10' 56"
Sunlit
Object was in full shadow at epoch
Visualization orbit readout
Latitude
Unknown
Longitude
Unknown
Altitude
Unknown
Speed
Unknown
Apparent Right ascension
Unknown
Apparent Declination
Unknown
Sunlit
N/A
Visualization observer readout
Local Sidereal Time
12:28:12
Azimuth
Unknown
Elevation
Unknown
Doppler factor
Unknown
Orbital elements
Apogee altitude
1,408.438 km
Perigee altitude
1,402.224 km
Semi-major axis
7,783.468 km
Eccentricity
0.0004
Inclination
82.606°
RAAN
38.7249°
Arg. of periapsis
15.4525°
True anomaly
355.92985°
Mean anomaly
355.9331°
Eccentric anomaly
355.93148°
Mean motion
3.1607 °/min
Orbital period
113.9 mins
BSTAR
0.000011246
Loading maneuver chart data...
Computing Atmospheric mass density...
Loading historical data...
Loading historical data...
Loading historical data...
Loading historical data...
Loading historical data...
Loading historical data...
Loading historical data...

Documentation

Showing up to 5 results
|